Flag for U.S.A. Weather past 2 weeks in Flagstaff, Arizona, U.S.A.

Now
33 °F

Clear.


Feels Like: 33 °F
Forecast: 38 / 72 °F
Wind: No wind

Location: Flagstaff Pulliam Airport

Current Time: Oct 23, 2014 at 6:17:45 AM

Latest Report: Oct 23, 2014 at 5:57 AM


Visibility: 8 mi

Pressure: 30.16 "Hg

Humidity: 85%

Dew point: 29 °F

Location of FlagstaffLocation

Historic Weather in Flagstaff — Graph

°F

Flagstaff temperature yesterday

Maximum temperature yesterday: 65 °F (at 11:57 AM)
Minimum temperature yesterday: 35 °F (at 6:57 AM)
Average temperature yesterday: 49 °F

Past Weeks' High & Low Weather Summary

 TemperatureHumidityPressure
High71 °F (Oct 14, 2:57 PM)93% (Oct 9, 3:57 AM)30.26 "Hg (Oct 9, 3:57 AM)
Low28 °F (Oct 14, 5:57 AM)12% (Oct 12, 3:57 PM)29.83 "Hg (Oct 12, 12:57 PM)
Average50 °F58%30.01 "Hg
* Reported Oct 8 4:57 AM — Oct 23 4:57 AM, Flagstaff, Weather by CustomWeather, © 2014

Note: Actual official high and low records may vary slightly from our data, if they occured in-between our weather recording intervals... More about our weather records

Advertising

Flagstaff weather history for previous 24 hours

 ConditionsComfort  
Time TempWeatherWind HumidityBarometerVisibility
4:57 AM
Oct 23
33 °FFog.No wind85%30.14 "Hg5 mi
3:57 AM34 °FClear.No wind82%30.12 "Hg5 mi
2:57 AM34 °FClear.No wind82%30.11 "Hg5 mi
1:57 AM35 °FClear.No wind78%30.13 "Hg8 mi
12:57 AM37 °FClear.No wind76%30.11 "Hg9 mi
11:57 PM
Oct 22
36 °FClear.No wind75%30.10 "Hg9 mi
10:57 PM39 °FClear.No wind70%30.12 "Hg10 mi
9:57 PM40 °FClear.No wind70%30.11 "Hg10 mi
8:57 PM42 °FClear.No wind68%30.13 "Hg10 mi
7:57 PM45 °FClear.No wind65%30.16 "Hg10 mi
6:57 PM49 °FClear.No wind57%30.16 "Hg10 mi
5:57 PM57 °FClear.5 mph44%30.10 "Hg10 mi
4:57 PM62 °FSunny.10 mph37%30.05 "Hg10 mi
3:57 PM64 °FPassing clouds.13 mph37%30.03 "Hg10 mi
2:57 PM65 °FSunny.12 mph34%30.03 "Hg10 mi
1:57 PM65 °FPassing clouds.14 mph37%30.02 "Hg10 mi
12:57 PM65 °FSunny.7 mph36%30.03 "Hg10 mi
11:57 AM65 °FSunny.8 mph34%30.04 "Hg10 mi
10:57 AM60 °FSunny.3 mph42%30.06 "Hg10 mi
9:57 AM59 °FSunny.No wind49%30.06 "Hg10 mi
8:57 AM55 °FSunny.3 mph59%30.06 "Hg10 mi
7:57 AM45 °FSunny.No wind80%30.10 "Hg10 mi
6:57 AM35 °FSunny.No wind88%30.10 "Hg10 mi
Weather by CustomWeather, © 2014

See weather overviewHow to use our weather pages